Regional Weather Roundup
Issued by NWS Newport/Morehead, NC

Current Version | Previous Version | Graphics & Text | Print | Product List | Glossary On
Versions: 1 2 3 4 5 6 7 8 9 10 11 12 13 14 15 16 17 18 19 20 21 22 23 24 25 26 27 28 29 30 31 32 33 34 35 36 37 38 39 40 41 42 43 44 45 46 47 48 49 50
000 ASUS42 KMHX 260513 RWRMHX WEATHER ROUNDUP FOR EASTERN NORTH CAROLINA NATIONAL WEATHER SERVICE NEWPORT/MOREHEAD CITY NC 100 AM EDT SAT MAY 26 2018 NOTE: "FAIR" INDICATES FEW OR NO CLOUDS BELOW 12,000 FEET WITH NO SIGNIFICANT WEATHER AND/OR OBSTRUCTIONS TO VISIBILITY NCZ015>017-031-032-045>047-102-103-260600- NORTH COAST CITY SKY/WX TMP DP RH WIND PRES REMARKS EDENTON FAIR 75 71 86 SW10 30.01S ELIZABETH CITY MOCLDY 75 71 87 SW10 30.00R KITTY HAWK FAIR 73 69 87 SW6 29.99F MANTEO FAIR 74 70 87 SW13 30.01F $$ NCZ045>047-081-094-103-104-260600- CENTRAL COAST CITY SKY/WX TMP DP RH WIND PRES REMARKS FRISCO FAIR 75 72 90 SW8 30.03S $$ NCZ095-097-098-100-101-260600- SOUTHERN COAST CITY SKY/WX TMP DP RH WIND PRES REMARKS BEAUFORT FAIR 74 72 93 SW9 30.03S CEDAR ISLAND NOT AVBL JACKSONVILLE FAIR 72 72 100 CALM 30.02S PINEY ISLAND NOT AVBL WILMINGTON FAIR 73 70 90 CALM 30.03S $$ NCZ011>013-027>030-043-044-078>080-089-090>093-098-260600- COASTAL PLAIN CITY SKY/WX TMP DP RH WIND PRES REMARKS AHOSKIE FAIR 71 69 96 CALM 30.00S CLINTON FAIR 71 71 100 CALM 30.03S ELIZABETHTOWN FAIR 71 70 95 S5 30.03S GOLDSBORO FAIR 72 69 92 S5 30.00S GREENVILLE FAIR 72 70 94 SW8 30.03S HAVELOCK NOT AVBL KENANSVILLE FAIR 68 68 100 CALM 30.03S FOG KINSTON NOT AVBL NEW BERN FAIR 70 70 100 S6 30.03S RICHLANDS FAIR 70 69 97 S3 30.03S ROCKY MOUNT FAIR 73 70 90 S8 30.01S WASHINGTON FAIR 72 70 93 CALM 30.02S WHITEVILLE FAIR 69 68 96 CALM 30.02F $$ AMZ130-135-150-152-154-156-158-170-250-252-270-ANZ085-086-088-633-658-670-260600- MARINE OBSERVATIONS STATION/POSITION TIME TEMP WIND PRES WAVE SWELL AIR SEA DIR/SP/G HT/PER HT/PER (UTC) (F) (DEG/KT/KT) (MB) (FT/S) (FT/S) CHESAPEAKE LIGHT NOT AVBL 64 E VA BEACH 0450 71 68 210/ 12/ 14 1016.0 3/ 9 2/ 9 DUCK 0448 76 65 200/ 14/ 18 1015.4 2 E DUCK 0500 70 N/A 2/ 8 OREGON INLET 0436 77 80 190/ 16/ 20 1016.0 13E OREGON INLT 0448 71 N/A 2/ 9 2/ 9 HATTERAS CG 0448 75 78 210/ 6/ 9 1016.5 DIAMOND BUOY 0500 77 77 200/ 14/ 16 1017.1 CAPE LOOKOUT 0500 210/ 5/ 6 1017.1 BEAUFORT LAB 0448 75 79 210/ 7/ 9 1017.1 30 SE NEW RVR IN 0408 76 76 200/ 6/ 10 1017.2 30 SE NEW RVR IN 0500 77 N/A 3/ 8 27 SE WRIGHTSVLE 0408 76 76 220/ 8/ 10 1017.1 5 SE WRIGHTSVLE 0408 74 74 320/ 8/ 10 1016.4 225 S CAPE HAT 0450 79 190/ 8/ 10 1017.9 3/ 8 3/ 8 41 SE CHARLESTON 0450 76 190/ 8/ 10 1016.7 3/ 9 3/ 9 $$

USA.gov is the U.S. government's official web portal to all federal, state and local government web resources and services.